When you browse on this site, cookies collect data to enhance your experience and personalize the content and advertising you see.
Visit our Privacy Policy to learn more. By continuing to use the site, you agree to this use of cookies and data.
  • In Latvia
  • List of Countries
  • For 7 days
  • Water Temperature
  • Satellite Maps
  • Weather Map
  • Weather Widgets
  • user-avatar
    Login

    Hourly Weather Malaya Kamenka

    Today, 25 May, Saturday

    Time Temperature Precipitation Wind Pressure Humidity
    00:00 +14°C° 0 mm 3 mps 738 mmHg 95%
    01:00 +14°C° 0 mm 3 mps 738 mmHg 96%
    02:00 +13°C° 0 mm 3 mps 738 mmHg 96%
    03:00 +14°C° 0 mm 2 mps 738 mmHg 97%
    04:00 +14°C° 0 mm 2 mps 738 mmHg 97%
    05:00 +14°C° 0 mm 2 mps 738 mmHg 97%
    06:00 +15°C° 0 mm 2 mps 738 mmHg 93%
    07:00 +16°C° 0 mm 3 mps 738 mmHg 89%
    08:00 +17°C° 0 mm 3 mps 738 mmHg 85%
    09:00 +19°C° 0 mm 3 mps 738 mmHg 79%
    10:00 +20°C° 0 mm 4 mps 738 mmHg 73%
    11:00 +21°C° 0 mm 4 mps 738 mmHg 67%
    12:00 +21°C° 0.3 mm 4 mps 738 mmHg 65%
    13:00 +22°C° 0.3 mm 4 mps 738 mmHg 63%
    14:00 +22°C° 0.3 mm 4 mps 738 mmHg 62%
    15:00 +22°C° 0.2 mm 4 mps 738 mmHg 59%
    16:00 +22°C° 0.2 mm 4 mps 738 mmHg 57%
    17:00 +22°C° 0.2 mm 3 mps 737 mmHg 55%
    18:00 +20°C° 0 mm 3 mps 738 mmHg 62%
    19:00 +18°C° 0 mm 3 mps 738 mmHg 69%
    20:00 +16°C° 0 mm 3 mps 738 mmHg 77%
    21:00 +16°C° 0 mm 3 mps 738 mmHg 80%
    22:00 +14°C° 0 mm 3 mps 738 mmHg 83%
    23:00 +13°C° 0 mm 3 mps 738 mmHg 87%

    Tomorrow, 26 May, Sunday

    Time Temperature Precipitation Wind Pressure Humidity
    00:00 +12°C° 0 mm 3 mps 738 mmHg 87%
    01:00 +11°C° 0 mm 3 mps 739 mmHg 87%
    02:00 +10°C° 0 mm 3 mps 739 mmHg 87%
    03:00 +9°C° 0 mm 3 mps 739 mmHg 88%
    04:00 +9°C° 0 mm 2 mps 739 mmHg 90%
    05:00 +8°C° 0 mm 2 mps 739 mmHg 91%
    06:00 +10°C° 0 mm 3 mps 739 mmHg 85%
    07:00 +11°C° 0 mm 3 mps 739 mmHg 78%
    08:00 +13°C° 0 mm 3 mps 740 mmHg 71%
    09:00 +14°C° 0 mm 4 mps 740 mmHg 66%
    10:00 +15°C° 0 mm 4 mps 739 mmHg 62%
    11:00 +16°C° 0 mm 5 mps 739 mmHg 58%
    12:00 +17°C° 0 mm 5 mps 739 mmHg 57%
    13:00 +17°C° 0 mm 5 mps 739 mmHg 57%
    14:00 +19°C° 0 mm 6 mps 739 mmHg 57%
    15:00 +19°C° 0 mm 6 mps 739 mmHg 58%
    16:00 +19°C° 0 mm 5 mps 739 mmHg 58%
    17:00 +19°C° 0 mm 5 mps 738 mmHg 59%
    18:00 +17°C° 0 mm 5 mps 738 mmHg 66%
    19:00 +15°C° 0 mm 4 mps 739 mmHg 72%
    20:00 +14°C° 0 mm 3 mps 739 mmHg 78%
    21:00 +13°C° 0 mm 3 mps 739 mmHg 80%
    22:00 +13°C° 0 mm 3 mps 739 mmHg 83%
    23:00 +13°C° 0 mm 2 mps 739 mmHg 85%

    Day after tomorrow, 27 May, Monday

    Time Temperature Precipitation Wind Pressure Humidity
    00:00 +12°C° 0 mm 2 mps 739 mmHg 87%
    01:00 +12°C° 0 mm 2 mps 739 mmHg 90%
    02:00 +10°C° 0 mm 2 mps 740 mmHg 92%
    03:00 +11°C° 0 mm 3 mps 740 mmHg 91%
    04:00 +11°C° 0 mm 3 mps 740 mmHg 89%
    05:00 +11°C° 0 mm 3 mps 740 mmHg 87%
    06:00 +12°C° 0 mm 4 mps 740 mmHg 84%
    07:00 +13°C° 0 mm 4 mps 740 mmHg 81%
    08:00 +14°C° 0 mm 4 mps 740 mmHg 78%
    09:00 +16°C° 0 mm 5 mps 740 mmHg 74%
    10:00 +17°C° 0 mm 5 mps 741 mmHg 70%
    11:00 +20°C° 0 mm 6 mps 741 mmHg 67%
    12:00 +20°C° 0.3 mm 6 mps 741 mmHg 67%
    13:00 +21°C° 0.3 mm 6 mps 740 mmHg 67%
    14:00 +21°C° 0.3 mm 6 mps 740 mmHg 67%
    15:00 +21°C° 0.3 mm 6 mps 740 mmHg 67%
    16:00 +21°C° 0.3 mm 6 mps 740 mmHg 67%
    17:00 +22°C° 0.3 mm 5 mps 740 mmHg 67%
    18:00 +20°C° 0.1 mm 5 mps 740 mmHg 72%
    19:00 +19°C° 0.1 mm 4 mps 740 mmHg 78%
    20:00 +18°C° 0.1 mm 3 mps 740 mmHg 83%
    21:00 +17°C° 0 mm 3 mps 740 mmHg 86%
    22:00 +17°C° 0 mm 3 mps 740 mmHg 89%
    23:00 +16°C° 0 mm 3 mps 740 mmHg 92%

    28 May, Tuesday

    Time Temperature Precipitation Wind Pressure Humidity
    00:00 +16°C° 0 mm 3 mps 740 mmHg 93%
    01:00 +16°C° 0 mm 3 mps 740 mmHg 93%
    02:00 +16°C° 0 mm 3 mps 740 mmHg 94%
    03:00 +16°C° 0 mm 3 mps 740 mmHg 95%
    04:00 +16°C° 0 mm 3 mps 740 mmHg 96%
    05:00 +16°C° 0 mm 3 mps 741 mmHg 96%
    06:00 +17°C° 0.1 mm 3 mps 741 mmHg 91%
    07:00 +19°C° 0.1 mm 4 mps 741 mmHg 86%
    08:00 +20°C° 0.1 mm 4 mps 741 mmHg 80%
    09:00 +20°C° 0.3 mm 4 mps 741 mmHg 81%
    10:00 +20°C° 0.3 mm 3 mps 741 mmHg 82%
    11:00 +19°C° 0.3 mm 3 mps 741 mmHg 83%
    12:00 +21°C° 0.3 mm 3 mps 740 mmHg 79%
    13:00 +22°C° 0.3 mm 3 mps 740 mmHg 75%
    14:00 +25°C° 0.3 mm 4 mps 740 mmHg 71%
    15:00 +23°C° 1.2 mm 4 mps 739 mmHg 75%
    16:00 +24°C° 1.2 mm 3 mps 739 mmHg 79%
    17:00 +22°C° 1.2 mm 3 mps 738 mmHg 82%
    18:00 +22°C° 0.7 mm 3 mps 738 mmHg 84%
    19:00 +21°C° 0.7 mm 3 mps 738 mmHg 85%
    20:00 +20°C° 0.7 mm 3 mps 738 mmHg 86%
    21:00 +20°C° 0 mm 4 mps 738 mmHg 88%
    22:00 +19°C° 0 mm 4 mps 738 mmHg 89%
    23:00 +18°C° 0 mm 4 mps 738 mmHg 90%

    29 May, Wednesday

    Time Temperature Precipitation Wind Pressure Humidity
    00:00 +18°C° 0 mm 4 mps 739 mmHg 91%
    01:00 +18°C° 0 mm 4 mps 739 mmHg 92%
    02:00 +17°C° 0 mm 3 mps 739 mmHg 93%
    03:00 +17°C° 0.4 mm 3 mps 739 mmHg 93%
    04:00 +17°C° 0.4 mm 3 mps 739 mmHg 93%
    05:00 +17°C° 0.4 mm 3 mps 739 mmHg 93%
    06:00 +18°C° 0.1 mm 3 mps 739 mmHg 89%
    07:00 +19°C° 0.1 mm 3 mps 739 mmHg 85%
    08:00 +20°C° 0.1 mm 4 mps 739 mmHg 82%
    09:00 +20°C° 0.3 mm 4 mps 739 mmHg 79%
    10:00 +21°C° 0.3 mm 4 mps 739 mmHg 77%
    11:00 +22°C° 0.3 mm 4 mps 739 mmHg 75%
    12:00 +23°C° 0 mm 4 mps 739 mmHg 73%
    13:00 +23°C° 0 mm 4 mps 739 mmHg 71%
    14:00 +25°C° 0 mm 4 mps 739 mmHg 69%
    15:00 +25°C° 0.8 mm 3 mps 739 mmHg 73%
    16:00 +24°C° 0.8 mm 3 mps 739 mmHg 77%
    17:00 +24°C° 0.8 mm 3 mps 739 mmHg 82%
    18:00 +21°C° 0.6 mm 2 mps 739 mmHg 84%
    19:00 +20°C° 0.6 mm 2 mps 739 mmHg 87%
    20:00 +19°C° 0.6 mm 2 mps 740 mmHg 89%
    21:00 +18°C° 0.1 mm 2 mps 740 mmHg 90%
    22:00 +19°C° 0.1 mm 1 mps 740 mmHg 92%
    23:00 +18°C° 0.1 mm 1 mps 740 mmHg 93%

    30 May, Thursday

    Time Temperature Precipitation Wind Pressure Humidity
    00:00 +17°C° 0 mm 2 mps 741 mmHg 94%
    01:00 +17°C° 0 mm 2 mps 741 mmHg 95%
    02:00 +16°C° 0 mm 3 mps 741 mmHg 96%
    03:00 +16°C° 0 mm 3 mps 742 mmHg 96%
    04:00 +15°C° 0 mm 4 mps 742 mmHg 95%
    05:00 +14°C° 0 mm 4 mps 743 mmHg 95%
    06:00 +14°C° 0 mm 4 mps 743 mmHg 93%
    07:00 +14°C° 0 mm 5 mps 744 mmHg 92%
    08:00 +13°C° 0 mm 5 mps 744 mmHg 90%
    09:00 +15°C° 0 mm 5 mps 745 mmHg 81%
    10:00 +16°C° 0 mm 5 mps 745 mmHg 73%
    11:00 +19°C° 0 mm 5 mps 745 mmHg 64%
    12:00 +19°C° 0 mm 4 mps 746 mmHg 61%
    13:00 +20°C° 0 mm 4 mps 746 mmHg 57%
    14:00 +21°C° 0 mm 4 mps 746 mmHg 53%
    15:00 +20°C° 0 mm 4 mps 746 mmHg 53%
    16:00 +20°C° 0 mm 4 mps 746 mmHg 53%
    17:00 +20°C° 0 mm 3 mps 746 mmHg 52%
    18:00 +19°C° 0 mm 3 mps 746 mmHg 58%
    19:00 +17°C° 0 mm 3 mps 746 mmHg 63%
    20:00 +15°C° 0 mm 2 mps 746 mmHg 69%
    21:00 +15°C° 0 mm 2 mps 746 mmHg 68%
    22:00 +14°C° 0 mm 2 mps 746 mmHg 67%
    23:00 +13°C° 0 mm 2 mps 746 mmHg 66%
    Show more